Find ICEYE-X8

NORAD ID: 47510 Int'l Des: 2021-006 Owner: ICEYE Country: FI Constellation: iceye decayed
LEOCIRCULARRETROGRADE

Historical Track — Nov 14, 2025

正在加载3D地球...

关于 ICEYE-X8

正在加载描述...

高度历史

Loading altitude history...

两行轨道根数

1 47510U 21006DB 25318.42152149 .13776352 24193-5 55836-3 0 9991
2 47510 97.2200 29.2528 0010203 285.6686 74.3489 16.42888174268374
Epoch: Nov 14, 2025 • Age: 4610 hours

当前状态

Position data unavailable
发射日期 Jan 24, 2021
运行时间 5.3 years
衰减日期 Nov 14, 2025
类型 earth observation

技术详情

分类 Payload
质量 80.00 kg
干质量 80.00 kg
总质量 80.00 kg
长度 0.80 m
直径 0.60 m
跨度 1.50 m
形状 Box + pan
制造商 ICEYE
平台类型 ICEYE
阶段状态 Reentered
所有者/国家 ICEYE/FI

Most Searched